LA8QT Lodingen NO current weather conditions

sailwx.info

Wind from 203 at 1 knots

Air temperature -2.2° C
Dewpoint -5.4° C

Last reported at 2016-Dec-03 18:42 UTC.
Time now 2016-Dec-03 19:43 UTC

Location: N 68°28' E 016°04'.
View on Google Maps.

See reports from other nearby stations

  
Tides and Currents Weather Stations Pressure Air Temp Water Temp Dewpoint Dewpoint Depression Visibility Wind Speed Wind Dir Waves Ship Positions
date/time (UTC)wind fromknots sea level pressurealtimeterstation pressurevisibilityair tempwater tempwave heightnotes
2016-Dec-03 18:42 203 1 -2.2
2016-Dec-03 18:27 103 -2.8
2016-Dec-03 18:12 103 -2.8
2016-Dec-03 17:57 103 0 -1.7
2016-Dec-03 17:42 125 1 -1.1
2016-Dec-03 17:27 100 1 -1.1
2016-Dec-03 17:12 098 0 -1.7
2016-Dec-03 16:57 249 -2.8
2016-Dec-03 16:42 106 0 -2.8
2016-Dec-03 16:27 106 -2.2
2016-Dec-03 16:12 106 0 -1.1
2016-Dec-03 15:57 100 4 -1.1
2016-Dec-03 15:42 081 3 -1.1
2016-Dec-03 15:27 075 -1.7
2016-Dec-03 15:12 074 0 -1.7
2016-Dec-03 14:57 339 -2.2
2016-Dec-03 14:42 339 -2.2
2016-Dec-03 14:27 339 -2.2
2016-Dec-03 14:12 339 -1.7
2016-Dec-03 13:57 339 -2.2
2016-Dec-03 13:42 339 1 -2.2
2016-Dec-03 13:27 339 1 -2.2
2016-Dec-03 13:12 339 -2.2
2016-Dec-03 12:57 339 -1.7
2016-Dec-03 12:42 339 -2.2
2016-Dec-03 12:27 339 -2.2
2016-Dec-03 12:12 339 -2.2
2016-Dec-03 11:57 339 0 -2.2
2016-Dec-03 11:42 339 0 -2.2
2016-Dec-03 11:12 339 -2.8
2016-Dec-03 10:57 339 -2.8
2016-Dec-03 10:42 339 -2.8
2016-Dec-03 10:27 339 0 -3.3
2016-Dec-03 10:12 339 1 -3.3
2016-Dec-03 09:57 339 1 -2.8
2016-Dec-03 09:42 339 1 -3.3
2016-Dec-03 09:27 339 1 -2.8
2016-Dec-03 09:12 340 1 -2.2
2016-Dec-03 08:57 340 -2.8
2016-Dec-03 08:42 340 -2.2
2016-Dec-03 08:27 340 0 -2.2
2016-Dec-03 08:12 340 2 -2.2
2016-Dec-03 07:57 322 -2.8
2016-Dec-03 07:42 321 -2.8
2016-Dec-03 07:27 320 -2.8
2016-Dec-03 07:12 320 -2.2
2016-Dec-03 06:57 320 -2.2
2016-Dec-03 06:42 320 -2.8
2016-Dec-03 06:27 321 1 -3.3
2016-Dec-03 06:12 320 1 -3.9
2016-Dec-03 05:57 320 1 -3.9
2016-Dec-03 05:42 321 2 -3.9
2016-Dec-03 05:27 321 2 -4.4
2016-Dec-03 05:12 321 2 -4.4
2016-Dec-03 04:57 321 2 -3.9
2016-Dec-03 04:42 321 2 -3.9
2016-Dec-03 04:27 320 2 -3.9
2016-Dec-03 04:12 320 2 -4.4
2016-Dec-03 03:57 321 2 -4.4
2016-Dec-03 03:42 321 2 -3.9
2016-Dec-03 03:27 321 2 -3.9
2016-Dec-03 03:12 321 2 -4.4
2016-Dec-03 02:57 321 2 -3.9
2016-Dec-03 02:42 320 2 -4.4
2016-Dec-03 02:27 320 2 -4.4
2016-Dec-03 02:12 320 2 -3.9
2016-Dec-03 01:57 321 2 -4.4
2016-Dec-03 01:42 321 2 -4.4
2016-Dec-03 01:26 321 2 -4.4
2016-Dec-03 01:12 321 2 -4.4
2016-Dec-03 00:57 321 2 -3.9
2016-Dec-03 00:41 321 1 -3.3
2016-Dec-03 00:26 320 1 -3.9
2016-Dec-03 00:11 321 1 -3.9
2016-Dec-02 23:56 321 2 -3.9
2016-Dec-02 23:41 320 2 -3.9
2016-Dec-02 23:26 321 2 -3.9
2016-Dec-02 23:11 320 1 -3.9
2016-Dec-02 22:56 321 2 -3.3
2016-Dec-02 22:41 321 2 -3.3
2016-Dec-02 22:26 320 2 -3.9
2016-Dec-02 22:11 333 2 -3.3
2016-Dec-02 21:56 333 2 -3.9
2016-Dec-02 21:41 334 2 -3.3
2016-Dec-02 21:26 334 2 -3.3
2016-Dec-02 21:11 334 2 -3.3
2016-Dec-02 20:56 334 2 -3.3
2016-Dec-02 20:41 333 2 -3.9
2016-Dec-02 20:26 334 1 -3.3
2016-Dec-02 20:11 333 -2.8
2016-Dec-02 19:56 333 -3.3
2016-Dec-02 19:41 333 0 -2.2
2016-Dec-02 19:26 335 0 -2.2
2016-Dec-02 19:11 335 2 -2.8
2016-Dec-02 18:56 335 2 -2.2
2016-Dec-02 18:41 358 0 -1.7
2016-Dec-02 18:26 041 3 -0.6
2016-Dec-02 18:11 013 1 -1.1
2016-Dec-02 17:56 347 2 -1.1
2016-Dec-02 17:41 346 2 -1.1
2016-Dec-02 17:26 337 3 -1.1
2016-Dec-02 17:11 329 4 -1.1
2016-Dec-02 16:56 334 4 -1.1
2016-Dec-02 16:41 329 4 -1.1
2016-Dec-02 16:26 309 5 -1.1
2016-Dec-02 16:11 310 5 -1.1
2016-Dec-02 15:56 339 6 -1.1
2016-Dec-02 15:41 323 4 -1.1
2016-Dec-02 15:26 335 4 -1.1
2016-Dec-02 15:11 327 3 -1.1
2016-Dec-02 14:56 314 3 -1.1
2016-Dec-02 14:41 328 0 -0.6
2016-Dec-02 14:26 295 -0.6
2016-Dec-02 14:11 295 -0.6
2016-Dec-02 13:56 217 -1.1
2016-Dec-02 13:41 217 -0.6
2016-Dec-02 13:26 217 -0.6
2016-Dec-02 13:11 216 -0.6
2016-Dec-02 12:56 219 -1.1
2016-Dec-02 12:41 218 -1.1
2016-Dec-02 12:26 219 -1.1
2016-Dec-02 12:11 219 -1.1
2016-Dec-02 11:56 219 -1.1
2016-Dec-02 11:41 219 -1.1
2016-Dec-02 11:26 218 1 -1.1
2016-Dec-02 11:11 207 2 -1.1
2016-Dec-02 10:56 193 2 -1.1
2016-Dec-02 10:41 213 1 -1.1
2016-Dec-02 10:26 219 2 -1.1
2016-Dec-02 10:11 229 1 -1.1
2016-Dec-02 09:56 246 -1.1
2016-Dec-02 09:41 246 -1.7
2016-Dec-02 09:26 246 1 -2.2
2016-Dec-02 09:11 246 1 -1.7
2016-Dec-02 08:56 331 1 -2.8
2016-Dec-02 08:41 331 -2.8
2016-Dec-02 08:26 003 -2.2
2016-Dec-02 08:10 003 -2.2
2016-Dec-02 07:55 003 -1.7
2016-Dec-02 07:41 003 -1.7
2016-Dec-02 07:25 003 1 -1.1
2016-Dec-02 07:10 331 3 -1.1
2016-Dec-02 06:55 346 3 -1.1
2016-Dec-02 06:40 281 5 -0.6
2016-Dec-02 06:25 295 -1.1
2016-Dec-02 06:11 300 -1.1
2016-Dec-02 05:55 300 0 -1.1
2016-Dec-02 05:40 300 1 -1.7
2016-Dec-02 05:25 360 0 -1.7
2016-Dec-02 05:10 055 -1.1
2016-Dec-02 04:55 055 -0.6
2016-Dec-02 04:40 054 -0.6
2016-Dec-02 04:25 054 4 -0.6
2016-Dec-02 04:10 050 8 -0.0
2016-Dec-02 03:55 351 7 -0.6
2016-Dec-02 03:40 192 0 -0.6
2016-Dec-02 03:25 192 0 -0.6
2016-Dec-02 03:10 332 3 -0.6
2016-Dec-02 02:55 331 -0.6
2016-Dec-02 02:40 300 0 -0.6
2016-Dec-02 02:25 295 0 -0.6
2016-Dec-02 02:10 324 6 -0.6
2016-Dec-02 01:55 324 10 -0.6
2016-Dec-02 01:25 326 8 1.7
2016-Dec-02 01:10 325 5 1.1
2016-Dec-02 00:55 319 5 1.1
2016-Dec-02 00:40 310 4 1.7
2016-Dec-02 00:25 305 8 1.7
2016-Dec-02 00:10 324 9 1.7
2016-Dec-01 23:55 333 5 1.7
2016-Dec-01 23:40 309 7 1.7
2016-Dec-01 23:25 320 7 1.7
2016-Dec-01 23:10 329 9 2.2
2016-Dec-01 22:55 308 10 2.2
2016-Dec-01 22:40 320 12 2.8
2016-Dec-01 22:25 002 13 2.8
2016-Dec-01 22:10 347 13 2.8
2016-Dec-01 21:55 339 10 2.8
2016-Dec-01 21:39 356 13 2.8
2016-Dec-01 21:25 349 14 2.8
2016-Dec-01 21:09 325 9 2.2
2016-Dec-01 20:24 023 15 2.2
2016-Dec-01 20:13 019 11 1.7
2016-Dec-01 19:54 337 12 1.1
2016-Dec-01 19:24 327 11 1.7
2016-Dec-01 19:09 331 11 2.2